Regional Weather Roundup
Issued by NWS Sterling, VA

Home | Current Version | Previous Version | Graphics & Text | Print | Product List | Glossary On
Versions: 1 2 3 4 5 6 7 8 9 10 11 12 13 14 15 16 17 18 19 20 21 22 23 24 25 26 27 28 29 30 31 32 33 34 35 36 37 38 39 40 41 42 43 44 45 46 47 48 49
162
ASUS41 KLWX 062310
RWRLWX

REGIONAL WEATHER ROUNDUP
NATIONAL WEATHER SERVICE BALTIMORE MD/WASHINGTON DC
600 PM EST SAT FEB 06 2016

Note: "FAIR" indicates few or no clouds below 12,000 feet
with no significant weather and/or obstructions to visibility.
 TC=TEMPERATURE CELSIUS

 * =Non NWS site. Station does not report precipitation (e.g. rain,
    snow, etc.), thunder, or fog.

DCZ001-MDZ009-015-VAZ040>042-051-053>054-070000-
WASHINGTON METRO

CITY           SKY/WX    TMP DP  RH WIND       PRES   REMARKS
WASHINGTON NAT MOCLDY    41  18  39 S5        30.32S
DULLES         MOCLDY    36  19  50 S3        30.29F
ANDREWS AFB    CLEAR     38  19  45 S3        30.30R
FT BELVOIR     MOCLDY    40  18  41 S2        30.31R
QUANTICO       FAIR      41  29  62 SW7       30.33S
LEESBURG*      FAIR      41  23  48 S6        30.29F
MANASSAS*      CLEAR     37  21  52 CALM      30.30S
GAITHERSBURG*  CLEAR     39  16  38 CALM      30.33R

$$

MDZ006>007-011-014-070000-
BALTIMORE METRO

CITY           SKY/WX    TMP DP  RH WIND       PRES   REMARKS
BWI AIRPORT    PTCLDY    38  18  44 CALM      30.30S
MD SCIENCE CTR   N/A     41  18  39 MISG      30.30R
ANNAPOLIS      CLEAR     37  27  67 S6        30.32S
FORT MEADE*    CLEAR     36  19  51 CALM      30.33S

$$

MDZ012-015-019>023-070000-
MARYLAND EASTERN SHORE

CITY           SKY/WX    TMP DP  RH WIND       PRES   REMARKS
OCEAN CITY     PTCLDY    37  25  61 S3        30.35R
SALISBURY      CLEAR     37  28  70 SE8       30.33S
BAY BRIDGE AP*   N/A     39  19  45 CALM      30.33R

$$

MDZ017>025-070000-
SOUTHERN MARYLAND

CITY           SKY/WX    TMP DP  RH WIND       PRES   REMARKS
PATUXENT RIVER MOCLDY    37  22  54 S5        30.32F
ST INIGOES     CLEAR     37  25  61 E3        30.32S
LEONARDTOWN*   CLEAR     36  23  60 CALM      30.34R

$$

MDZ003>005-070000-
NORTH CENTRAL MARYLAND

CITY           SKY/WX    TMP DP  RH WIND       PRES   REMARKS
FREDERICK*     CLEAR     39  23  52 S3        30.31S
HAGERSTOWN APT CLOUDY    39  18  42 SE7       30.25S
WESTMINSTER*   CLEAR     37  25  60 SW3       30.27S

$$

MDZ501>502-070000-
WESTERN MARYLAND

CITY           SKY/WX    TMP DP  RH WIND       PRES   REMARKS
OAKLAND*       CLEAR     32  14  47 W6        30.16S
CUMBERLAND*    CLEAR     43  18  36 CALM      30.26R

$$

VAZ025>031-070000-
SHENANDOAH VALLEY

CITY           SKY/WX    TMP DP  RH WIND       PRES   REMARKS
WINCHESTER*    FAIR      37  21  52 S5        30.25S
FRONT ROYAL*   FAIR      39  19  45 S3        30.24S
LURAY*         FAIR      37  19  48 SW3       30.25R
NEW MARKET*    FAIR      37  21  52 CALM      30.23S
STAUNTON*      FAIR      41  19  42 S3        30.25S
WAYNESBORO*    FAIR      37  15  40 S3        30.23S

$$

WVZ021-048>050-054>055-070000-
EASTERN WEST VIRGINIA PANHANDLE

CITY           SKY/WX    TMP DP  RH WIND       PRES   REMARKS
MARTINSBURG    FAIR      37  18  46 SE6       30.25S
PETERSBURG*    FAIR      41  22  46 CALM      30.23S

$$

VAZ036>039-050-070000-
CENTRAL FOOTHILLS

CITY           SKY/WX    TMP DP  RH WIND       PRES   REMARKS
CHARLOTTESVILL FAIR      40  17  39 S9        30.27S
CULPEPER*      FAIR      36  20  51 CALM      30.30S
ORANGE*        FAIR      41  19  42 CALM      30.30S
GORDONSVILLE*  FAIR      38  20  47 S3        30.28S
WARRENTON*     FAIR      38  24  57 CALM      30.29S

$$

VAZ055>057-070000-
NORTH AND CENTRAL PIEDMONT

CITY           SKY/WX    TMP DP  RH WIND       PRES   REMARKS
FREDERICKSBRG* FAIR      40  23  50 CALM      30.30S
STAFFORD*      FAIR      40  16  38 S3        30.35S

$$

NCZ024-NYZ072-PAZ021-071-VAZ022-071-070000-
OTHER REGIONAL OBSERVATIONS

CITY           SKY/WX    TMP DP  RH WIND       PRES   REMARKS
NEW YORK CITY  PTCLDY    39  17  41 VRB6G17   30.30S
PHILADELPHIA   PTCLDY    39  22  50 SW7       30.31S
PITTSBURGH     PTCLDY    39  14  36 W6        30.21R
ROANOKE        FAIR      40  17  39 SE6       30.29R
RICHMOND       FAIR      39  21  48 SE6       30.31F
RALEIGH        PTCLDY    42  20  41 SE3       30.31F

$$

ANZ530>537-070000-
MARINE OBSERVATIONS

STATION/POSITION TIME  TEMP    WIND        PRES
                       AIR SEA DIR/SP/G
                 (UTC) (F)     (DEG/KT/KT) (MB)
THOMAS PT LIGHT  2300   39 39  180/ 11/ 12 1027.3R
BALT KEY BRIDGE  2200   40                 1026.2S
COVE POINT       2200   38                 1027.5F
LEWISETTA        2200   40 42              1026.6F
SOLOMONS ISLAND  2200   39 42                N/A

$$





USA.gov is the U.S. government's official web portal to all federal, state and local government web resources and services.